FENGYUN 1C DEB

Satellite information

Favourite Embed

Satellite Type and Status

DEBRISIN ORBIT

Key statistics

Satellite FENGYUN 1C DEB at a glance.

Uptime

9658

Days in orbit

Revolutions

≈ 14.3

Per day

Orbit

SSO

Sun Synchronous Orbit

Inclination

99.0

Latest

Satellite identification and parameters

Extended collection of information and parameters for FENGYUN 1C DEB.

Object identification

Identified? True

Debris? True

Object name: FENGYUN 1C DEB

International designator: 1999-025CVW

Object number (NORAD): 32224

Object ID (CCSDS): 32224

Country: PEOPLES REPUBLIC OF CHINA (PRC)

Current information (Y/N): Y

RCS size: SMALL

Orbital parameters

Period: 100.427 minutes

Inclination: 98.9734 deg

SMA: 7156.934 km

Apoapsis: 832.589 km

Periapsis: 725.008 km

RAAN: 237.3988 deg

Eccentricy: 0.0075159

Argument of periapsis: 236.1372 deg

Mean anomaly: 123.2644 deg

Mean motion: 14.33878247 rev/day

Mean motion (dot): 0.00001125 rev/day2

B* drag term: 0.00040815 1/REarth

Two-line elements (TLE)

Creation date: Oct. 16, 2025, 12:16 a.m.

Reference frame: TEME

Reference center: EARTH

Epoch: Oct. 15, 2025, 2:13 p.m. UTC

TLE line 0: 0 FENGYUN 1C DEB

TLE line 1: 1 32224U 99025CVW 25288.59282449 .00001125 00000-0 40815-3 0 9996

TLE line 2: 2 32224 98.9734 237.3988 0075159 236.1372 123.2644 14.33878247948905

Live tracking on map

Real-time ground track for satellite FENGYUN 1C DEB.

In-orbit conjunctions

A list of the most updated potential collisions computed for object FENGYUN 1C DEB.

Target Orbit TCA Probability of collision Miss distance Type
SL-12 R/B(AUX MOTOR) LEO 2024-11-29 08:13:00 0.0001122548 442.0 (m) ROCKET BODY
CZ-6A DEB LEO 2024-11-05 15:47:45 0.0001573357 987.0 (m) DEBRIS
COSMOS 1269 LEO 2024-10-17 17:46:28 0.0002610253 198.0 (m) PAYLOAD

Associated space launch

Chinese polar orbiting meteorological satellite

FENGYUN 1C DEB was lifted into orbit during the mission ‘Long March 4B | Feng Yun 1C’, on board a Long March 4B space rocket.

The launch took place on May 10, 1999, 1:33 a.m. from Launch Complex 7.

For more information about the launch, click the button.

Launch to space Long March 4B | Feng Yun 1C
Long March 4B | Feng Yun 1C

Agency: N/A

Status: Launch Successful

Launch date: May 10, 1999, 1:33 a.m. UTC

Rocket: Long March 4B

Launch pad: Launch Complex 7

Location: Taiyuan Satellite Launch Center, People's Republic of China

...

Latest news about this satellite

There are no fresh news available about this satellite. Check back as we update our databases every day.


Newsletter sign-up

Weekly statistics, charts and insights to help you stay on top of the space industry.